RON18 NFFN-ANYN

Flight info

Callsign RON18
Flight time 2h 47m
Altitude 34000
Route ALPHA NN DCT GUKIV G223 BULRO DCT KADNA
Aircraft B738/M-SDE2E3FGHIRWXY/LB1

Departure

Time 2026-05-07 00:20
Airport Nadi International Airport (NFFN)

Arrival

Time 2026-05-07 03:07
Airport Nauru International Airport (ANYN)
Time Latitude Longitude Altitude Speed Heading
2026-05-06 23:59 -17.75245 177.45166 56 ft 0 kts 195°
2026-05-07 00:14 -17.75244 177.45166 56 ft 1 kts 195°
2026-05-07 00:14 -17.75230 177.45171 56 ft 2 kts 195°
2026-05-07 00:14 -17.75215 177.45175 56 ft 2 kts 195°
2026-05-07 00:14 -17.75200 177.45178 56 ft 2 kts 195°
2026-05-07 00:15 -17.75186 177.45183 56 ft 2 kts 195°
2026-05-07 00:15 -17.75172 177.45187 56 ft 2 kts 195°
2026-05-07 00:15 -17.75158 177.45192 56 ft 2 kts 218°
2026-05-07 00:15 -17.75147 177.45204 56 ft 2 kts 238°
2026-05-07 00:16 -17.75141 177.45218 56 ft 2 kts 259°
2026-05-07 00:16 -17.75141 177.45233 56 ft 1 kts 280°
2026-05-07 00:16 -17.75142 177.45239 56 ft 1 kts 286°
2026-05-07 00:16 -17.75143 177.45241 56 ft 0 kts 285°
2026-05-07 00:18 -17.75142 177.45238 56 ft 0 kts 285°
2026-05-07 00:18 -17.75139 177.45229 56 ft 2 kts 285°
2026-05-07 00:18 -17.75114 177.45184 55 ft 11 kts 324°
2026-05-07 00:19 -17.75072 177.45087 52 ft 17 kts 283°
2026-05-07 00:19 -17.75048 177.44954 50 ft 19 kts 273°
2026-05-07 00:19 -17.75020 177.44806 46 ft 21 kts 285°
2026-05-07 00:19 -17.75080 177.44678 45 ft 23 kts 219°
2026-05-07 00:20 -17.75399 177.44423 48 ft 96 kts 214°
2026-05-07 00:20 -17.76121 177.43837 43 ft 166 kts 217°
2026-05-07 00:20 -17.77061 177.43034 709 ft 178 kts 216°
2026-05-07 00:20 -17.78046 177.42181 1457 ft 190 kts 217°
2026-05-07 00:21 -17.79104 177.41307 2114 ft 199 kts 213°
2026-05-07 00:21 -17.80273 177.40424 2693 ft 212 kts 214°
2026-05-07 00:21 -17.81276 177.39217 3183 ft 235 kts 245°
2026-05-07 00:21 -17.81554 177.37471 3774 ft 252 kts 276°
2026-05-07 00:22 -17.81017 177.35693 4496 ft 262 kts 300°
2026-05-07 00:22 -17.79867 177.34129 5191 ft 273 kts 321°
2026-05-07 00:22 -17.78276 177.33023 5991 ft 278 kts 332°
2026-05-07 00:22 -17.76548 177.32097 6823 ft 282 kts 334°
2026-05-07 00:23 -17.74754 177.31145 7641 ft 289 kts 333°
2026-05-07 00:23 -17.72962 177.30148 8468 ft 293 kts 331°
2026-05-07 00:23 -17.71170 177.29115 9303 ft 296 kts 330°
2026-05-07 00:23 -17.69362 177.28055 10082 ft 301 kts 330°
2026-05-07 00:24 -17.67505 177.26961 10648 ft 313 kts 329°
2026-05-07 00:24 -17.65563 177.25818 11152 ft 327 kts 329°
2026-05-07 00:24 -17.63523 177.24618 11601 ft 342 kts 329°
2026-05-07 00:24 -17.61424 177.23386 12005 ft 357 kts 329°
2026-05-07 00:25 -17.59180 177.22070 12436 ft 370 kts 329°
2026-05-07 00:25 -17.56921 177.20749 13023 ft 377 kts 329°
2026-05-07 00:25 -17.54616 177.19402 13662 ft 382 kts 329°
2026-05-07 00:25 -17.52288 177.18039 14294 ft 387 kts 329°
2026-05-07 00:26 -17.49924 177.16656 14923 ft 391 kts 328°
2026-05-07 00:26 -17.47517 177.15248 15535 ft 396 kts 328°
2026-05-07 00:26 -17.45906 177.14307 15945 ft 398 kts 328°
2026-05-07 00:26 -17.42672 177.12415 16778 ft 403 kts 328°
2026-05-07 00:27 -17.40207 177.10973 17397 ft 406 kts 327°
2026-05-07 00:27 -17.37752 177.09537 17968 ft 410 kts 327°
2026-05-07 00:27 -17.35218 177.08057 18560 ft 413 kts 327°
2026-05-07 00:27 -17.32715 177.06595 19138 ft 416 kts 327°
2026-05-07 00:28 -17.30157 177.05101 19719 ft 420 kts 327°
2026-05-07 00:28 -17.27607 177.03613 20287 ft 422 kts 327°
2026-05-07 00:28 -17.25033 177.02112 20839 ft 426 kts 327°
2026-05-07 00:28 -17.22426 177.00594 21431 ft 428 kts 327°
2026-05-07 00:29 -17.19819 176.99074 21981 ft 430 kts 327°
2026-05-07 00:29 -17.17199 176.97546 22509 ft 433 kts 327°
2026-05-07 00:30 -17.09237 176.92911 23997 ft 441 kts 326°
2026-05-07 00:30 -17.06529 176.91334 24447 ft 445 kts 326°
2026-05-07 00:30 -17.03815 176.89754 24932 ft 447 kts 326°
2026-05-07 00:30 -17.01069 176.88156 25387 ft 450 kts 326°
2026-05-07 00:31 -16.98311 176.86551 25797 ft 453 kts 326°
2026-05-07 00:31 -16.95539 176.84938 26243 ft 456 kts 325°
2026-05-07 00:31 -16.92768 176.83327 26618 ft 459 kts 325°
2026-05-07 00:31 -16.89945 176.81685 27027 ft 462 kts 325°
2026-05-07 00:32 -16.87132 176.80051 27417 ft 465 kts 325°
2026-05-07 00:32 -16.84296 176.78403 27797 ft 468 kts 324°
2026-05-07 00:32 -16.81434 176.76741 28190 ft 470 kts 324°
2026-05-07 00:32 -16.78575 176.75081 28530 ft 473 kts 324°
2026-05-07 00:33 -16.75672 176.73399 29024 ft 472 kts 324°
2026-05-07 00:33 -16.72804 176.71741 29578 ft 470 kts 324°
2026-05-07 00:33 -16.69958 176.70094 30066 ft 468 kts 324°
2026-05-07 00:33 -16.67094 176.68437 30526 ft 468 kts 324°
2026-05-07 00:34 -16.64237 176.66783 30915 ft 469 kts 324°
2026-05-07 00:34 -16.61383 176.65131 31289 ft 470 kts 324°
2026-05-07 00:34 -16.58541 176.63486 31673 ft 470 kts 324°
2026-05-07 00:34 -16.55638 176.61804 32060 ft 470 kts 324°
2026-05-07 00:35 -16.52787 176.60155 32404 ft 471 kts 324°
2026-05-07 00:35 -16.49920 176.58498 32780 ft 471 kts 324°
2026-05-07 00:35 -16.47026 176.56825 33223 ft 471 kts 324°
2026-05-07 00:35 -16.44187 176.55185 33696 ft 469 kts 324°
2026-05-07 00:36 -16.41334 176.53537 33919 ft 471 kts 324°
2026-05-07 00:36 -16.38435 176.51862 33912 ft 470 kts 324°
2026-05-07 00:36 -16.32723 176.48566 33912 ft 467 kts 324°
2026-05-07 00:37 -16.27046 176.45291 33909 ft 468 kts 324°
2026-05-07 00:37 -16.21319 176.41989 33898 ft 467 kts 324°
2026-05-07 00:38 -16.15632 176.38713 33889 ft 467 kts 324°
2026-05-07 00:38 -16.09913 176.35419 33892 ft 468 kts 324°
2026-05-07 00:39 -16.04217 176.32141 33885 ft 469 kts 324°
2026-05-07 00:39 -15.98480 176.28845 33886 ft 470 kts 324°
2026-05-07 00:40 -15.92717 176.25536 33887 ft 470 kts 324°
2026-05-07 00:40 -15.87003 176.22255 33897 ft 470 kts 324°
2026-05-07 00:41 -15.81263 176.18962 33903 ft 470 kts 324°
2026-05-07 00:41 -15.75525 176.15672 33899 ft 470 kts 324°
2026-05-07 00:42 -15.69778 176.12376 33899 ft 470 kts 324°
2026-05-07 00:42 -15.64065 176.09103 33896 ft 470 kts 324°
2026-05-07 00:43 -15.58368 176.05759 33894 ft 467 kts 322°
2026-05-07 00:43 -15.52843 176.02229 33896 ft 466 kts 321°
2026-05-07 00:44 -15.47335 175.98630 33894 ft 467 kts 321°
2026-05-07 00:44 -15.41806 175.95039 33892 ft 465 kts 321°
2026-05-07 00:45 -15.36269 175.91470 33893 ft 466 kts 321°
2026-05-07 00:45 -15.30707 175.87900 33892 ft 467 kts 321°
2026-05-07 00:46 -15.25168 175.84358 33893 ft 467 kts 321°
2026-05-07 00:46 -15.19609 175.80811 33900 ft 468 kts 321°
2026-05-07 00:47 -15.14068 175.77275 33904 ft 468 kts 322°
2026-05-07 00:47 -15.08512 175.73734 33905 ft 467 kts 322°
2026-05-07 00:48 -15.02984 175.70210 33905 ft 468 kts 322°
2026-05-07 00:48 -14.97410 175.66658 33905 ft 469 kts 322°
2026-05-07 00:49 -14.91841 175.63113 33903 ft 469 kts 322°
2026-05-07 00:49 -14.86271 175.59569 33902 ft 468 kts 322°
2026-05-07 00:50 -14.82577 175.57219 33901 ft 469 kts 321°
2026-05-07 00:50 -14.75137 175.52487 33894 ft 469 kts 322°
2026-05-07 00:51 -14.69607 175.48976 33893 ft 466 kts 322°
2026-05-07 00:51 -14.64056 175.45454 33898 ft 468 kts 322°
2026-05-07 00:52 -14.58507 175.41933 33889 ft 469 kts 322°
2026-05-07 00:52 -14.52933 175.38397 33883 ft 469 kts 322°
2026-05-07 00:53 -14.47334 175.34850 33880 ft 468 kts 322°
2026-05-07 00:53 -14.41780 175.31332 33884 ft 469 kts 322°
2026-05-07 00:54 -14.36185 175.27791 33883 ft 469 kts 322°
2026-05-07 00:54 -14.30603 175.24258 33882 ft 470 kts 322°
2026-05-07 00:55 -14.25044 175.20750 33882 ft 468 kts 322°
2026-05-07 00:55 -14.19451 175.17218 33884 ft 469 kts 322°
2026-05-07 00:56 -14.13897 175.13710 33882 ft 469 kts 322°
2026-05-07 00:56 -14.08341 175.10202 33884 ft 470 kts 322°
2026-05-07 00:57 -14.02738 175.06667 33880 ft 471 kts 322°
2026-05-07 00:57 -13.97129 175.03134 33886 ft 470 kts 322°
2026-05-07 00:58 -13.91553 174.99625 33884 ft 469 kts 322°
2026-05-07 00:58 -13.85963 174.96107 33884 ft 469 kts 322°
2026-05-07 00:59 -13.77602 174.90846 33884 ft 468 kts 323°
2026-05-07 01:00 -13.72021 174.87338 33885 ft 468 kts 323°
2026-05-07 01:00 -13.66468 174.83852 33885 ft 468 kts 323°
2026-05-07 01:01 -13.60893 174.80351 33883 ft 466 kts 323°
2026-05-07 01:01 -13.55351 174.76872 33885 ft 468 kts 323°
2026-05-07 01:02 -13.49805 174.73392 33881 ft 465 kts 323°
2026-05-07 01:02 -13.44270 174.69923 33877 ft 466 kts 323°
2026-05-07 01:03 -13.38736 174.66454 33871 ft 467 kts 323°
2026-05-07 01:03 -13.33147 174.62953 33868 ft 467 kts 323°
2026-05-07 01:04 -13.27615 174.59491 33865 ft 466 kts 323°
2026-05-07 01:04 -13.22078 174.56029 33864 ft 466 kts 323°
2026-05-07 01:05 -13.16520 174.52554 33864 ft 466 kts 323°
2026-05-07 01:05 -13.10991 174.49098 33863 ft 466 kts 323°
2026-05-07 01:06 -13.05460 174.45644 33864 ft 465 kts 323°
2026-05-07 01:06 -12.99902 174.42178 33865 ft 465 kts 323°
2026-05-07 01:07 -12.94377 174.38734 33863 ft 463 kts 323°
2026-05-07 01:07 -12.88838 174.35283 33863 ft 464 kts 323°
2026-05-07 01:08 -12.83322 174.31844 33862 ft 464 kts 324°
2026-05-07 01:08 -12.77811 174.28410 33863 ft 462 kts 324°
2026-05-07 01:09 -12.72424 174.25056 33863 ft 463 kts 324°
2026-05-07 01:09 -12.66935 174.21639 33861 ft 462 kts 324°
2026-05-07 01:10 -12.61407 174.18199 33863 ft 464 kts 324°
2026-05-07 01:10 -12.55877 174.14763 33863 ft 464 kts 324°
2026-05-07 01:11 -12.50351 174.11333 33861 ft 461 kts 324°
2026-05-07 01:11 -12.44846 174.07912 33863 ft 463 kts 324°
2026-05-07 01:12 -12.39323 174.04485 33862 ft 463 kts 324°
2026-05-07 01:12 -12.33806 174.01062 33865 ft 462 kts 324°
2026-05-07 01:13 -12.28294 173.97647 33869 ft 461 kts 324°
2026-05-07 01:13 -12.22831 173.94263 33862 ft 461 kts 324°
2026-05-07 01:14 -12.17309 173.90842 33849 ft 461 kts 324°
2026-05-07 01:14 -12.11801 173.87434 33846 ft 463 kts 324°
2026-05-07 01:15 -12.06303 173.84033 33844 ft 461 kts 324°
2026-05-07 01:15 -12.00818 173.80640 33846 ft 461 kts 324°
2026-05-07 01:16 -11.95306 173.77231 33848 ft 461 kts 325°
2026-05-07 01:16 -11.89786 173.73817 33854 ft 461 kts 324°
2026-05-07 01:17 -11.84313 173.70438 33860 ft 461 kts 325°
2026-05-07 01:17 -11.78792 173.67030 33857 ft 460 kts 324°
2026-05-07 01:18 -11.73302 173.63643 33858 ft 458 kts 324°
2026-05-07 01:18 -11.67833 173.60271 33857 ft 459 kts 325°
2026-05-07 01:19 -11.62388 173.56915 33855 ft 459 kts 325°
2026-05-07 01:19 -11.56872 173.53516 33858 ft 459 kts 325°
2026-05-07 01:20 -11.51411 173.50151 33865 ft 460 kts 325°
2026-05-07 01:20 -11.45921 173.46771 33863 ft 458 kts 325°
2026-05-07 01:21 -11.40471 173.43419 33864 ft 458 kts 325°
2026-05-07 01:21 -11.35020 173.40068 33865 ft 458 kts 325°
2026-05-07 01:22 -11.29532 173.36694 33863 ft 455 kts 325°
2026-05-07 01:22 -11.24109 173.33362 33864 ft 456 kts 325°
2026-05-07 01:23 -11.18647 173.30005 33865 ft 457 kts 325°
2026-05-07 01:23 -11.13206 173.26663 33860 ft 458 kts 326°
2026-05-07 01:24 -11.07709 173.23292 33850 ft 457 kts 326°
2026-05-07 01:24 -11.02249 173.19946 33846 ft 457 kts 326°
2026-05-07 01:25 -10.96786 173.16597 33843 ft 456 kts 326°
2026-05-07 01:25 -10.91366 173.13277 33844 ft 456 kts 326°
2026-05-07 01:26 -10.85897 173.09923 33843 ft 456 kts 326°
2026-05-07 01:26 -10.80437 173.06578 33843 ft 457 kts 326°
2026-05-07 01:27 -10.74998 173.03247 33844 ft 457 kts 326°
2026-05-07 01:27 -10.69538 172.99907 33843 ft 456 kts 326°
2026-05-07 01:28 -10.64050 172.96553 33843 ft 457 kts 326°
2026-05-07 01:28 -10.58610 172.93228 33843 ft 456 kts 326°
2026-05-07 01:29 -10.53175 172.89906 33843 ft 457 kts 326°
2026-05-07 01:29 -10.47703 172.86568 33843 ft 456 kts 326°
2026-05-07 01:30 -10.42236 172.83232 33842 ft 456 kts 327°
2026-05-07 01:30 -10.36807 172.79921 33843 ft 457 kts 326°
2026-05-07 01:31 -10.31325 172.76578 33842 ft 455 kts 327°
2026-05-07 01:31 -10.25920 172.73282 33842 ft 455 kts 327°
2026-05-07 01:32 -10.20458 172.69952 33841 ft 454 kts 327°
2026-05-07 01:32 -10.15022 172.66641 33844 ft 455 kts 327°
2026-05-07 01:33 -10.09592 172.63335 33843 ft 455 kts 327°
2026-05-07 01:33 -10.04133 172.60011 33842 ft 455 kts 327°
2026-05-07 01:34 -9.98680 172.56696 33842 ft 455 kts 327°
2026-05-07 01:34 -9.93238 172.53386 33842 ft 454 kts 327°
2026-05-07 01:35 -9.87835 172.50101 33837 ft 454 kts 327°
2026-05-07 01:35 -9.82393 172.46791 33829 ft 453 kts 327°
2026-05-07 01:36 -9.76974 172.43498 33821 ft 453 kts 327°
2026-05-07 01:36 -9.71577 172.40221 33822 ft 453 kts 327°
2026-05-07 01:37 -9.66108 172.36900 33820 ft 453 kts 327°
2026-05-07 01:37 -9.60664 172.33594 33827 ft 454 kts 327°
2026-05-07 01:38 -9.55261 172.30315 33834 ft 454 kts 327°
2026-05-07 01:38 -9.49813 172.27011 33834 ft 453 kts 327°
2026-05-07 01:39 -9.44428 172.23746 33831 ft 452 kts 327°
2026-05-07 01:39 -9.38994 172.20453 33836 ft 452 kts 327°
2026-05-07 01:40 -9.33594 172.17180 33842 ft 452 kts 328°
2026-05-07 01:40 -9.28156 172.13887 33841 ft 453 kts 328°
2026-05-07 01:41 -9.22750 172.10616 33842 ft 453 kts 328°
2026-05-07 01:41 -9.17295 172.07314 33843 ft 453 kts 328°
2026-05-07 01:42 -9.11867 172.04028 33842 ft 454 kts 328°
2026-05-07 01:42 -9.06430 172.00742 33843 ft 453 kts 328°
2026-05-07 01:43 -9.01032 171.97481 33843 ft 452 kts 328°
2026-05-07 01:43 -8.95609 171.94205 33843 ft 453 kts 328°
2026-05-07 01:44 -8.90174 171.90920 33842 ft 453 kts 328°
2026-05-07 01:44 -8.84763 171.87651 33843 ft 452 kts 328°
2026-05-07 01:45 -8.79330 171.84370 33839 ft 453 kts 328°
2026-05-07 01:45 -8.73864 171.81071 33837 ft 451 kts 328°
2026-05-07 01:46 -8.68429 171.77794 33837 ft 451 kts 328°
2026-05-07 01:46 -8.62967 171.74498 33829 ft 451 kts 328°
2026-05-07 01:47 -8.57449 171.71175 33824 ft 450 kts 328°
2026-05-07 01:47 -8.52016 171.67903 33824 ft 450 kts 328°
2026-05-07 01:48 -8.46606 171.64645 33821 ft 450 kts 328°
2026-05-07 01:48 -8.41210 171.61397 33823 ft 452 kts 328°
2026-05-07 01:49 -8.35795 171.58136 33823 ft 453 kts 329°
2026-05-07 01:49 -8.30348 171.54855 33823 ft 451 kts 328°
2026-05-07 01:50 -8.24963 171.51613 33821 ft 450 kts 328°
2026-05-07 01:50 -8.19571 171.48369 33823 ft 450 kts 328°
2026-05-07 01:51 -8.14211 171.45146 33823 ft 450 kts 328°
2026-05-07 01:51 -8.08810 171.41899 33823 ft 451 kts 329°
2026-05-07 01:52 -8.03365 171.38626 33823 ft 453 kts 329°
2026-05-07 01:52 -7.97957 171.35378 33823 ft 451 kts 329°
2026-05-07 01:53 -7.92528 171.32118 33822 ft 452 kts 328°
2026-05-07 01:53 -7.87105 171.28867 33822 ft 451 kts 328°
2026-05-07 01:54 -7.81696 171.25623 33822 ft 454 kts 329°
2026-05-07 01:54 -7.76270 171.22371 33819 ft 453 kts 329°
2026-05-07 01:55 -7.70814 171.19098 33817 ft 453 kts 329°
2026-05-07 01:55 -7.65399 171.15851 33809 ft 454 kts 329°
2026-05-07 01:56 -7.59943 171.12578 33803 ft 453 kts 329°
2026-05-07 01:56 -7.54507 171.09320 33813 ft 455 kts 329°
2026-05-07 01:57 -7.49044 171.06047 33821 ft 454 kts 329°
2026-05-07 01:57 -7.43576 171.02774 33822 ft 454 kts 329°
2026-05-07 01:58 -7.38130 170.99513 33821 ft 453 kts 329°
2026-05-07 01:58 -7.32697 170.96260 33822 ft 451 kts 329°
2026-05-07 01:59 -7.27283 170.93022 33821 ft 451 kts 329°
2026-05-07 01:59 -7.21878 170.89789 33821 ft 452 kts 329°
2026-05-07 02:00 -7.16470 170.86554 33823 ft 452 kts 329°
2026-05-07 02:00 -7.11033 170.83302 33821 ft 453 kts 329°
2026-05-07 02:01 -7.05622 170.80069 33821 ft 452 kts 329°
2026-05-07 02:01 -7.00204 170.76834 33821 ft 450 kts 329°
2026-05-07 02:02 -6.94811 170.73616 33823 ft 450 kts 329°
2026-05-07 02:02 -6.89385 170.70377 33822 ft 450 kts 329°
2026-05-07 02:03 -6.83999 170.67160 33821 ft 451 kts 329°
2026-05-07 02:03 -6.78567 170.63916 33820 ft 452 kts 329°
2026-05-07 02:04 -6.73159 170.60687 33819 ft 452 kts 329°
2026-05-07 02:04 -6.67753 170.57463 33815 ft 452 kts 329°
2026-05-07 02:05 -6.62293 170.54211 33814 ft 452 kts 329°
2026-05-07 02:05 -6.56884 170.50986 33810 ft 452 kts 329°
2026-05-07 02:06 -6.51484 170.47771 33805 ft 450 kts 329°
2026-05-07 02:06 -6.46067 170.44542 33804 ft 452 kts 329°
2026-05-07 02:07 -6.40653 170.41316 33802 ft 451 kts 329°
2026-05-07 02:07 -6.32543 170.36485 33801 ft 451 kts 330°
2026-05-07 02:08 -6.27093 170.33243 33803 ft 453 kts 330°
2026-05-07 02:08 -6.21661 170.30013 33802 ft 453 kts 330°
2026-05-07 02:09 -6.16205 170.26764 33801 ft 453 kts 329°
2026-05-07 02:09 -6.10776 170.23534 33801 ft 451 kts 329°
2026-05-07 02:10 -6.05366 170.20314 33803 ft 452 kts 330°
2026-05-07 02:10 -5.99948 170.17093 33801 ft 452 kts 330°
2026-05-07 02:11 -5.94518 170.13864 33802 ft 452 kts 330°
2026-05-07 02:11 -5.89111 170.10651 33801 ft 451 kts 330°
2026-05-07 02:12 -5.83670 170.07416 33801 ft 451 kts 330°
2026-05-07 02:12 -5.78263 170.04207 33802 ft 450 kts 330°
2026-05-07 02:13 -5.72817 170.00974 33806 ft 450 kts 330°
2026-05-07 02:13 -5.67435 169.97765 33812 ft 450 kts 330°
2026-05-07 02:14 -5.62052 169.94521 33815 ft 451 kts 329°
2026-05-07 02:14 -5.56669 169.91267 33813 ft 449 kts 329°
2026-05-07 02:15 -5.51313 169.88036 33810 ft 450 kts 329°
2026-05-07 02:15 -5.45902 169.84775 33804 ft 449 kts 329°
2026-05-07 02:16 -5.40548 169.81549 33804 ft 449 kts 329°
2026-05-07 02:16 -5.35201 169.78328 33803 ft 450 kts 330°
2026-05-07 02:17 -5.29814 169.75085 33802 ft 449 kts 329°
2026-05-07 02:17 -5.24418 169.71837 33803 ft 450 kts 329°
2026-05-07 02:18 -5.19057 169.68610 33802 ft 449 kts 329°
2026-05-07 02:18 -5.13689 169.65381 33804 ft 449 kts 329°
2026-05-07 02:19 -5.08295 169.62138 33802 ft 450 kts 330°
2026-05-07 02:19 -5.02895 169.58893 33802 ft 450 kts 329°
2026-05-07 02:20 -4.97510 169.55656 33801 ft 451 kts 329°
2026-05-07 02:20 -4.92080 169.52393 33801 ft 450 kts 330°
2026-05-07 02:21 -4.86690 169.49153 33801 ft 452 kts 329°
2026-05-07 02:21 -4.81299 169.45912 33801 ft 451 kts 329°
2026-05-07 02:22 -4.75872 169.42648 33801 ft 453 kts 329°
2026-05-07 02:22 -4.70480 169.39410 33800 ft 453 kts 329°
2026-05-07 02:23 -4.65032 169.36140 33801 ft 453 kts 329°
2026-05-07 02:23 -4.59634 169.32898 33801 ft 454 kts 329°
2026-05-07 02:24 -4.54190 169.29629 33800 ft 453 kts 329°
2026-05-07 02:24 -4.48776 169.26382 33801 ft 453 kts 329°
2026-05-07 02:25 -4.43367 169.23135 33800 ft 453 kts 329°
2026-05-07 02:25 -4.37946 169.19882 33798 ft 453 kts 329°
2026-05-07 02:26 -4.32506 169.16617 33795 ft 455 kts 329°
2026-05-07 02:26 -4.27058 169.13348 33789 ft 453 kts 329°
2026-05-07 02:27 -4.21631 169.10095 33783 ft 455 kts 329°
2026-05-07 02:27 -4.16191 169.06833 33781 ft 454 kts 329°
2026-05-07 02:28 -4.10738 169.03563 33779 ft 454 kts 329°
2026-05-07 02:28 -4.05291 169.00299 33781 ft 455 kts 329°
2026-05-07 02:29 -3.99861 168.97044 33788 ft 455 kts 329°
2026-05-07 02:29 -3.94363 168.93750 33794 ft 452 kts 329°
2026-05-07 02:30 -3.88893 168.90472 33800 ft 453 kts 329°
2026-05-07 02:30 -3.83458 168.87218 33802 ft 452 kts 329°
2026-05-07 02:31 -3.77997 168.83948 33802 ft 451 kts 329°
2026-05-07 02:31 -3.72510 168.80661 33801 ft 452 kts 329°
2026-05-07 02:32 -3.67090 168.77417 33801 ft 451 kts 329°
2026-05-07 02:32 -3.61677 168.74176 33803 ft 451 kts 329°
2026-05-07 02:33 -3.56300 168.70958 33801 ft 451 kts 329°
2026-05-07 02:33 -3.50887 168.67719 33802 ft 448 kts 329°
2026-05-07 02:34 -3.45531 168.64516 33802 ft 451 kts 329°
2026-05-07 02:34 -3.40130 168.61285 33801 ft 450 kts 329°
2026-05-07 02:35 -3.34750 168.58067 33799 ft 451 kts 329°
2026-05-07 02:35 -3.29362 168.54845 33795 ft 450 kts 329°
2026-05-07 02:36 -3.23941 168.51605 33794 ft 451 kts 329°
2026-05-07 02:36 -3.18577 168.48401 33790 ft 450 kts 329°
2026-05-07 02:37 -3.13158 168.45163 33796 ft 450 kts 329°
2026-05-07 02:37 -3.07788 168.41952 33793 ft 450 kts 329°
2026-05-07 02:38 -3.02408 168.38736 33788 ft 451 kts 329°
2026-05-07 02:38 -2.96996 168.35504 33781 ft 450 kts 329°
2026-05-07 02:39 -2.91586 168.32271 33782 ft 451 kts 329°
2026-05-07 02:39 -2.86235 168.29074 33780 ft 451 kts 329°
2026-05-07 02:40 -2.80837 168.25848 33779 ft 451 kts 329°
2026-05-07 02:40 -2.75428 168.22615 33782 ft 452 kts 329°
2026-05-07 02:41 -2.69993 168.19369 33779 ft 452 kts 329°
2026-05-07 02:41 -2.64557 168.16121 33780 ft 451 kts 329°
2026-05-07 02:42 -2.59170 168.12904 33780 ft 451 kts 329°
2026-05-07 02:42 -2.53766 168.09679 33781 ft 450 kts 329°
2026-05-07 02:43 -2.48393 168.06470 33779 ft 451 kts 329°
2026-05-07 02:43 -2.42917 168.03200 33783 ft 451 kts 329°
2026-05-07 02:44 -2.37449 168.00064 33781 ft 452 kts 331°
2026-05-07 02:44 -2.31902 167.97040 33780 ft 452 kts 331°
2026-05-07 02:45 -2.26330 167.94008 33790 ft 451 kts 331°
2026-05-07 02:45 -2.20791 167.90973 33568 ft 446 kts 331°
2026-05-07 02:46 -2.18066 167.89475 33132 ft 440 kts 331°
2026-05-07 02:46 -2.15399 167.88003 32639 ft 434 kts 331°
2026-05-07 02:46 -2.12752 167.86539 32242 ft 428 kts 331°
2026-05-07 02:46 -2.10125 167.85083 31749 ft 425 kts 331°
2026-05-07 02:47 -2.07558 167.83659 31228 ft 423 kts 331°
2026-05-07 02:47 -2.04934 167.82204 30705 ft 421 kts 331°
2026-05-07 02:47 -2.02380 167.80788 30177 ft 419 kts 331°
2026-05-07 02:47 -1.99842 167.79379 29655 ft 417 kts 332°
2026-05-07 02:48 -1.97307 167.77974 29129 ft 416 kts 332°
2026-05-07 02:48 -1.94773 167.76570 28603 ft 414 kts 332°
2026-05-07 02:48 -1.92231 167.75160 28082 ft 412 kts 332°
2026-05-07 02:48 -1.89756 167.73790 27560 ft 411 kts 332°
2026-05-07 02:49 -1.87242 167.72397 27037 ft 409 kts 332°
2026-05-07 02:49 -1.84743 167.71013 26513 ft 407 kts 332°
2026-05-07 02:49 -1.82279 167.69646 25996 ft 405 kts 332°
2026-05-07 02:49 -1.79796 167.68271 25468 ft 404 kts 332°
2026-05-07 02:50 -1.77332 167.66905 24953 ft 402 kts 332°
2026-05-07 02:50 -1.74888 167.65552 24436 ft 400 kts 332°
2026-05-07 02:50 -1.72452 167.64200 23915 ft 399 kts 332°
2026-05-07 02:50 -1.70008 167.62845 23402 ft 397 kts 332°
2026-05-07 02:51 -1.67599 167.61510 22891 ft 396 kts 332°
2026-05-07 02:51 -1.65190 167.60176 22379 ft 394 kts 333°
2026-05-07 02:51 -1.62762 167.58830 21877 ft 393 kts 333°
2026-05-07 02:51 -1.60338 167.57489 21371 ft 392 kts 333°
2026-05-07 02:52 -1.57949 167.56165 20858 ft 391 kts 333°
2026-05-07 02:52 -1.55548 167.54835 20344 ft 390 kts 332°
2026-05-07 02:52 -1.53178 167.53522 19821 ft 389 kts 332°
2026-05-07 02:52 -1.50808 167.52208 19309 ft 388 kts 332°
2026-05-07 02:53 -1.48454 167.50905 18796 ft 386 kts 332°
2026-05-07 02:53 -1.46086 167.49593 18277 ft 384 kts 332°
2026-05-07 02:53 -1.43762 167.48303 17769 ft 382 kts 332°
2026-05-07 02:53 -1.41457 167.47023 17269 ft 379 kts 332°
2026-05-07 02:54 -1.39152 167.45743 16757 ft 377 kts 332°
2026-05-07 02:54 -1.36862 167.44472 16254 ft 374 kts 332°
2026-05-07 02:54 -1.34596 167.43216 15757 ft 371 kts 331°
2026-05-07 02:54 -1.32351 167.41972 15260 ft 368 kts 331°
2026-05-07 02:55 -1.30101 167.40726 14765 ft 365 kts 331°
2026-05-07 02:55 -1.27879 167.39494 14269 ft 362 kts 331°
2026-05-07 02:55 -1.25657 167.38263 13773 ft 359 kts 330°
2026-05-07 02:55 -1.23450 167.37041 13322 ft 354 kts 330°
2026-05-07 02:56 -1.21330 167.35869 13089 ft 343 kts 330°
2026-05-07 02:56 -1.19227 167.34703 12730 ft 337 kts 330°
2026-05-07 02:56 -1.17187 167.33574 12290 ft 334 kts 330°
2026-05-07 02:56 -1.15174 167.32457 12059 ft 324 kts 330°
2026-05-07 02:57 -1.13220 167.31375 11807 ft 316 kts 330°
2026-05-07 02:57 -1.11285 167.30304 11424 ft 313 kts 330°
2026-05-07 02:57 -1.09401 167.29260 11139 ft 306 kts 330°
2026-05-07 02:57 -1.07539 167.28229 10743 ft 305 kts 331°
2026-05-07 02:58 -1.05675 167.27196 10324 ft 304 kts 331°
2026-05-07 02:58 -1.03840 167.26180 9987 ft 301 kts 330°
2026-05-07 02:58 -1.02014 167.25168 9778 ft 292 kts 330°
2026-05-07 02:58 -1.00209 167.24168 9339 ft 294 kts 330°
2026-05-07 02:59 -0.98421 167.23178 8952 ft 294 kts 331°
2026-05-07 02:59 -0.96629 167.22186 8577 ft 292 kts 331°
2026-05-07 02:59 -0.94859 167.21205 8204 ft 291 kts 331°
2026-05-07 02:59 -0.93067 167.20213 7827 ft 290 kts 331°
2026-05-07 03:00 -0.91305 167.19238 7444 ft 290 kts 332°
2026-05-07 03:00 -0.89523 167.18251 7056 ft 289 kts 332°
2026-05-07 03:00 -0.87750 167.17271 6669 ft 288 kts 332°
2026-05-07 03:00 -0.85987 167.16296 6280 ft 287 kts 332°
2026-05-07 03:01 -0.84235 167.15326 5908 ft 286 kts 332°
2026-05-07 03:01 -0.82496 167.14362 5530 ft 285 kts 332°
2026-05-07 03:01 -0.80767 167.13405 5153 ft 284 kts 332°
2026-05-07 03:01 -0.79039 167.12448 4778 ft 282 kts 333°
2026-05-07 03:02 -0.77302 167.11488 4401 ft 281 kts 333°
2026-05-07 03:02 -0.75592 167.10541 4138 ft 275 kts 333°
2026-05-07 03:02 -0.73918 167.09615 3972 ft 266 kts 333°
2026-05-07 03:02 -0.72300 167.08719 3760 ft 260 kts 333°
2026-05-07 03:03 -0.70699 167.07832 3478 ft 257 kts 333°
2026-05-07 03:03 -0.69134 167.06969 3163 ft 256 kts 333°
2026-05-07 03:03 -0.67571 167.06105 2882 ft 253 kts 333°
2026-05-07 03:03 -0.66080 167.05185 2633 ft 249 kts 324°
2026-05-07 03:04 -0.64849 167.03996 2421 ft 241 kts 312°
2026-05-07 03:04 -0.63829 167.02728 2269 ft 221 kts 310°
2026-05-07 03:04 -0.62912 167.01570 2057 ft 195 kts 311°
2026-05-07 03:04 -0.62099 167.00589 1935 ft 171 kts 313°
2026-05-07 03:05 -0.61342 166.99699 1753 ft 157 kts 313°
2026-05-07 03:05 -0.60641 166.98877 1619 ft 153 kts 313°
2026-05-07 03:05 -0.59947 166.98064 1423 ft 154 kts 313°
2026-05-07 03:05 -0.59251 166.97252 1189 ft 151 kts 313°
2026-05-07 03:06 -0.58547 166.96454 946 ft 150 kts 315°
2026-05-07 03:06 -0.57887 166.95651 776 ft 151 kts 309°
2026-05-07 03:06 -0.57248 166.94817 628 ft 150 kts 310°
2026-05-07 03:06 -0.56577 166.94002 447 ft 152 kts 313°
2026-05-07 03:07 -0.55858 166.93205 239 ft 153 kts 315°
2026-05-07 03:07 -0.55165 166.92400 34 ft 149 kts 313°
2026-05-07 03:07 -0.54625 166.91760 25 ft 80 kts 311°
2026-05-07 03:07 -0.54407 166.91530 24 ft 15 kts 314°
2026-05-07 03:08 -0.54427 166.91522 24 ft 7 kts 130°
2026-05-07 03:08 -0.54461 166.91563 23 ft 7 kts 119°
2026-05-07 03:08 -0.54450 166.91611 24 ft 7 kts 46°
2026-05-07 03:08 -0.54423 166.91638 26 ft 3 kts 46°
2026-05-07 03:09 -0.54411 166.91656 27 ft 1 kts 75°
2026-05-07 03:09 -0.54411 166.91666 27 ft 3 kts 97°
2026-05-07 03:09 -0.54424 166.91689 28 ft 2 kts 143°
2026-05-07 03:09 -0.54443 166.91693 27 ft 3 kts 187°
2026-05-07 03:10 -0.54444 166.91693 26 ft 0 kts 188°